Regional Weather Roundup
Issued by NWS

Home | Current Version | Previous Version | Text Only | Print | Product List | Glossary On
Versions: 1 2 3 4 5 6 7 8 9 10 11 12 13 14 15 16 17 18 19 20 21 22 23 24 25 26 27 28 29 30 31 32 33 34 35 36 37 38 39 40 41 42 43 44 45 46 47 48 49 50
000
ASUS42 KKEY 191310
RWRKEY

FLORIDA REGIONAL WEATHER ROUNDUP FOR THE FLORIDA KEYS
NATIONAL WEATHER SERVICE KEY WEST FLORIDA
900 AM EDT FRI SEP 19 2014

...SOUTH FLORIDA AND THE KEYS...

CITY           SKY/WX    TMP DP  RH WIND       PRES   REMARKS
FORT MYERS     PTSUNNY   77  76  96 E6        29.93S
SW REGIONAL AP PTSUNNY   77  65  66 E6        29.94S
NAPLES         LGT RAIN  79  76  90 SE6       29.94R
MIAMI          CLOUDY    83  74  74 SW6       29.97R
WEST KENDALL   PTSUNNY   82  74  76 S3        29.97R
HOMESTEAD      PTSUNNY   80  75  84 CALM      29.97R
MARATHON       CLOUDY    82  75  79 SW3       29.96R
BOCA CHICA NAS LGT RAIN  81  75  82 S5        29.96R
KEY WEST INTL  CLOUDY    84  73  69 S5        29.96R HX  90

...INTERNATIONAL WEATHER...

CITY           SKY/WX    TMP DP  RH WIND       PRES   REMARKS
NASSAU BAHAMAS PTSUNNY   79  75  89 CALM      29.97R
CANCUN MEXICO  MOSUNNY   82  75  78 SE6       29.93R
COZUMEL MEXICO MOSUNNY   73  73 100 CALM      29.92S

ADJACENT COASTAL WATERS...

STATION/POSITION TIME  SKY/WX   TEMP    WIND        PRES    WAVE
                                AIR SEA DIR/SP/G            HT/PER
                 (UTC)          (F)     (DEG/KT/KT) (MB)    (FT/S)
PULASKI SHOAL LI 1300            83     230/  4/  6 1013.9R
SAND KEY         1236            83     190/  5/  6 1014.4R
SOMBRERO KEY     1300            83     200/  6/  7 1015.2R
LONG KEY         1159            83 85  210/  7/  7 1014.7R
MOLASSES REEF    1300            83 85  190/  5/  6 1014.8R
FOWEY ROCKS      1300            85 85  230/  4/  5 1014.9R
Buoy 42080       NOT AVBL

$$



USA.gov is the U.S. government's official web portal to all federal, state and local government web resources and services.